Regional Weather Roundup
Issued by NWS

Home | Current Version | Previous Version | Text Only | Print | Product List | Glossary On
Versions: 1 2 3 4 5 6 7 8 9 10 11 12 13 14 15 16 17 18 19 20 21 22 23 24 25 26 27 28 29 30 31 32 33 34 35 36 37 38 39 40 41 42 43 44 45 46 47 48 49 50
000
ASUS45 KBOU 040207
RWRCO

WEATHER ROUNDUP FOR COLORADO
NATIONAL WEATHER SERVICE DENVER/BOULDER CO
800 PM MDT THU SEP 03 2015

NOTE: "FAIR" INDICATES FEW OR NO CLOUDS BELOW 12000 FEET WITH NO
SIGNIFICANT WEATHER AND/OR OBSTRUCTIONS TO VISIBILITY.

COZ001>005-013-030-031-040300-
...NORTHWEST COLORADO...

CITY           SKY/WX    TMP DP  RH WIND       PRES   REMARKS
CRAIG          CLEAR     65  47  52 E15G23    30.03F
HAYDEN         CLEAR     61  43  51 E14       30.08S
MEEKER         CLEAR     68  46  45 CALM      30.04S
MOUNT WERNER   NOT AVBL
STEAMBOAT SPGS CLEAR     59  47  65 CALM      30.11F
WALDEN         CLOUDY    50  45  81 SE6       30.21S
$$

COZ006>008-011-040300-
...WEST CENTRAL VALLEYS...

CITY           SKY/WX    TMP DP  RH WIND       PRES   REMARKS
GRAND JUNCTION CLEAR     75  49  39 SE12      29.92S
MONTROSE       CLEAR     70  53  54 CALM      30.03S
EAGLE          CLEAR     63  54  72 W5        30.14R
RIFLE          CLEAR     67  52  58 E5        30.01S
DELTA          CLEAR     73  48  41 N6        29.98S
NUCLA          CLEAR     75  32  20 S8        30.05R
$$

COZ017>023-064>068-040300-
...SOUTHWEST COLORADO...

CITY           SKY/WX    TMP DP  RH WIND       PRES   REMARKS
DURANGO        MOCLDY    72  35  25 SW7       30.10R
CORTEZ         PTCLDY    71  44  37 S6        30.03S
PAGOSA SPRINGS MOCLDY    64  45  49 CALM      30.19S
TELLURIDE      MOCLDY    61  44  53 CALM      30.29R
WOLF CREEK PAS NOT AVBL
$$

COZ009-010-012-014-032>034-037-058>063-040300-
...CENTRAL COLORADO...

CITY           SKY/WX    TMP DP  RH WIND       PRES   REMARKS
ASPEN          CLEAR     55  48  77 S7        30.19R
BUENA VISTA    CLEAR     56  47  70 W7        30.21R
COPPER MTN     CLEAR     45  41  87 S13       30.46F
BERTHOUD PASS  FAIR      36  27  69 W13G24    30.49F
COTTONWOOD PAS CLEAR     55  41  58 W5        30.33R
GUNNISON       CLEAR     59  48  67 N7        30.21S
KREMMLING      CLEAR     54  48  82 CALM      30.20F
LEADVILLE      CLEAR     49  44  83 NE5       30.32S
MONARCH PASS   PTCLDY    45  37  76 W16       30.58R
SALIDA         CLEAR     64  46  51 W8        30.24R
SUNLIGHT       CLEAR     48  45  87 SE3       30.40S
WILKERSON PASS PTCLDY    46  41  81 SW3       30.45R
$$

COZ069>075-040300-
...SAN LUIS VALLEY/SANGRE DE CRISTO MOUNTAINS...

CITY           SKY/WX    TMP DP  RH WIND       PRES   REMARKS
ALAMOSA        PTCLDY    58  45  62 NW3       30.17F
LA VETA PASS   MOCLDY    54  41  62 S14       30.34R
SAGUACHE       PTCLDY    57  46  67 SE3       30.22R
$$

COZ035-036-038>040-040300-
...NORTHERN COLORADO FRONT RANGE...

CITY           SKY/WX    TMP DP  RH WIND       PRES   REMARKS
DENVER INTL AP MOCLDY    63  57  81 W9        30.00F
DMNS CITY PARK   N/A     63  59  86 E7        30.01S
AURORA         PTCLDY    61  60  97 SW8       30.03F
FRONT RANGE AP MOCLDY    61  57  88 W8        30.02F
ERIE MUNI ARPT PTCLDY    64  58  79 CALM      30.00S
BOULDER MUN AP PTCLDY    63  57  82 NW3       30.00F
CENTENNIAL     PTCLDY    62  58  86 SW8       30.05S
BROOMFIELD     PTCLDY    64  55  72 SW6       30.04F
FORT COLLINS   MOCLDY    70  48  46 SE3       30.00F
LONGMONT       MOCLDY    65  56  72 CALM      30.01F
$$

COZ041-046-047-076>085-087-088-040300-
...PIKES PEAK/PALMER DIVIDE AND SOUTHERN FOOTHILLS...

CITY           SKY/WX    TMP DP  RH WIND       PRES   REMARKS
COLO. SPRINGS  MOCLDY    66  54  65 NW8       30.05S
A. F. ACADEMY  CLOUDY    62  53  74 N10       30.08S
ELLICOTT       MOCLDY   N/A N/A N/A N12       30.02S
FALCON         MOCLDY    62  51  67 MISG      30.10S
FORT CARSON    MOCLDY    65  54  66 N12       30.01S
LIMON          MOCLDY    66  53  63 NW20      29.99R
MONUMENT HILL  MOCLDY    57  54  88 NW6       30.13F
TRINIDAD       MOCLDY    75  48  38 NW14      29.99R
$$

COZ042>045-048>051-090-091-040300-
...NORTHEAST COLORADO...

CITY           SKY/WX    TMP DP  RH WIND       PRES   REMARKS
GREELEY ARPT   MOCLDY    66  59  77 W5        29.99S
AKRON          CLOUDY    74  48  39 NW20G33   29.95R
BURLINGTON     CLOUDY    78  49  35 SE9       29.84R
WRAY           CLOUDY    71  61  69 NW21G32   29.82R
STERLING       CLOUDY    77  50  38 W18       29.87R
HOLYOKE        LGT RAIN  81  55  41 CALM      29.86R
FORT MORGAN    CLOUDY    70  49  47 W16       29.96R
$$

COZ086-089-092>099-040300-
...SOUTHEAST COLORADO...

CITY           SKY/WX    TMP DP  RH WIND       PRES   REMARKS
PUEBLO         MOCLDY    74  55  51 SW8       29.93R
LA JUNTA       CLOUDY    83  50  31 NW17G24   29.84R
LAMAR          MOCLDY    88  46  23 S16G24    29.78R
SPRINGFIELD      N/A     81  46  29 S15       29.89R
$$




USA.gov is the U.S. government's official web portal to all federal, state and local government web resources and services.